Weather in Elliqal'a

Uzbekistan     41°49′29″N   60°55′38″E
temp.,
°C
wind,
m/s
gust,
m/s
humid.,
%
clouds,
%
prec.,
mm/h
press.,
hPa
HPBL,
m
24 june, thu
thu2423:00+27ne34210 0.0 101438
02:00+26nne34240 0.0 101341
05:00+24n33260 0.0 101216
08:00+30wnw34200 0.0 1012290
11:00+36wnw66140 0.0 10111276
14:00+39nnw68135 0.0 10104322
17:00+39nne78136 0.0 10084257
20:00+36n913161 0.0 1009815
25 june, fri
fri2523:00+30n511230 0.0 1010233
02:00+27nne511350 0.0 1010275
05:00+25ne59360 0.0 1011202
08:00+28ne67280 0.0 1012505
11:00+32nne78190 0.0 10122098
14:00+34nne78100 0.0 10102392
17:00+35nne7880 0.0 10102652
20:00+31nne58100 0.0 1010171
26 june, sat
sat2623:00+26ne510120 0.0 1011171
02:00+24ene46160 0.0 101072
05:00+22ene33190 0.0 101033
08:00+27ne34170 0.0 1011291
11:00+33nne56120 0.0 10112084
14:00+36nne67120 0.0 10092546
17:00+36nne78120 0.0 10082866
20:00+33nne58150 0.0 1008192
27 june, sun
sun2723:00+29ne49200 0.0 1009148
02:00+27ene48230 0.0 1008118
05:00+25ene33250 0.0 100927
08:00+30e34170 0.0 1010287
11:00+35ene24130 0.0 10101909
14:00+38nne56145 0.0 10083725
17:00+38nne56130 0.0 10073822
20:00+36ene45160 0.0 100782
28 june, mon
mon2823:00+32e33185 0.0 100730
02:00+29s22195 0.0 100711
05:00+26ene112477 0.0 100811
08:00+32ese331754 0.1 1008190
11:00+37sse221399 0.2 10072724
14:00+39s111234 0.0 10064173
17:00+40ne111183 0.0 10044445
20:00+37ene331291 0.0 100572